AAL3521 KLAS-KSAN

Flight info

Callsign AAL3521
Flight time 0h 43m
Altitude 28000
Route RADYR2 LVELL LUCKI1
Aircraft A321/M-SDE3FGHIRWY/LB1

Departure

Time 2026-05-08 00:35
Airport Harry Reid International Airport (KLAS)

Arrival

Time 2026-05-08 01:18
Airport San Diego International Airport (KSAN)
Time Latitude Longitude Altitude Speed Heading
2026-05-08 00:03 36.07990 -115.13581 2120 ft 0 kts 42°
2026-05-08 00:23 36.07981 -115.13590 2120 ft 4 kts 40°
2026-05-08 00:24 36.07960 -115.13611 2124 ft 4 kts 38°
2026-05-08 00:24 36.07941 -115.13633 2122 ft 4 kts 64°
2026-05-08 00:24 36.07938 -115.13648 2122 ft 1 kts 134°
2026-05-08 00:24 36.07941 -115.13651 2122 ft 2 kts 134°
2026-05-08 00:27 36.07938 -115.13648 2122 ft 2 kts 135°
2026-05-08 00:27 36.07923 -115.13629 2125 ft 4 kts 135°
2026-05-08 00:28 36.07903 -115.13605 2123 ft 5 kts 135°
2026-05-08 00:28 36.07888 -115.13587 2123 ft 0 kts 135°
2026-05-08 00:29 36.07879 -115.13575 2123 ft 6 kts 134°
2026-05-08 00:30 36.07837 -115.13519 2125 ft 9 kts 124°
2026-05-08 00:30 36.07827 -115.13454 2126 ft 8 kts 91°
2026-05-08 00:30 36.07827 -115.13348 2128 ft 15 kts 90°
2026-05-08 00:30 36.07827 -115.13209 2122 ft 17 kts 90°
2026-05-08 00:31 36.07827 -115.13062 2120 ft 17 kts 90°
2026-05-08 00:31 36.07827 -115.12922 2120 ft 16 kts 90°
2026-05-08 00:31 36.07828 -115.12784 2117 ft 17 kts 89°
2026-05-08 00:31 36.07828 -115.12636 2115 ft 17 kts 91°
2026-05-08 00:32 36.07827 -115.12499 2117 ft 14 kts 90°
2026-05-08 00:32 36.07828 -115.12387 2118 ft 12 kts 90°
2026-05-08 00:32 36.07823 -115.12275 2118 ft 14 kts 108°
2026-05-08 00:32 36.07775 -115.12190 2120 ft 10 kts 128°
2026-05-08 00:33 36.07740 -115.12138 2122 ft 5 kts 135°
2026-05-08 00:33 36.07704 -115.12123 2124 ft 8 kts 170°
2026-05-08 00:33 36.07652 -115.12136 2125 ft 6 kts 223°
2026-05-08 00:33 36.07643 -115.12185 2125 ft 7 kts 270°
2026-05-08 00:34 36.07643 -115.12282 2123 ft 26 kts 270°
2026-05-08 00:34 36.07643 -115.12805 2122 ft 92 kts 270°
2026-05-08 00:34 36.07641 -115.13822 2123 ft 143 kts 270°
2026-05-08 00:34 36.07639 -115.15228 2129 ft 182 kts 270°
2026-05-08 00:35 36.07623 -115.16835 2582 ft 184 kts 271°
2026-05-08 00:35 36.07613 -115.18403 3224 ft 182 kts 270°
2026-05-08 00:35 36.07621 -115.19962 3762 ft 183 kts 269°
2026-05-08 00:35 36.07505 -115.21589 3886 ft 198 kts 258°
2026-05-08 00:36 36.07251 -115.23293 4049 ft 210 kts 259°
2026-05-08 00:36 36.06853 -115.25067 4228 ft 221 kts 239°
2026-05-08 00:36 36.05758 -115.26430 4382 ft 233 kts 210°
2026-05-08 00:36 36.04163 -115.27233 4471 ft 255 kts 200°
2026-05-08 00:37 36.02439 -115.27999 4758 ft 270 kts 200°
2026-05-08 00:37 36.00671 -115.28778 5276 ft 274 kts 200°
2026-05-08 00:37 35.98847 -115.29511 5854 ft 277 kts 193°
2026-05-08 00:38 35.95003 -115.30439 7010 ft 282 kts 192°
2026-05-08 00:38 35.93069 -115.30910 7574 ft 285 kts 193°
2026-05-08 00:38 35.91114 -115.31388 8158 ft 288 kts 193°
2026-05-08 00:38 35.89142 -115.31871 8729 ft 290 kts 193°
2026-05-08 00:39 35.87148 -115.32360 9314 ft 293 kts 193°
2026-05-08 00:39 35.85134 -115.32857 9874 ft 297 kts 194°
2026-05-08 00:39 35.83109 -115.33354 10245 ft 308 kts 194°
2026-05-08 00:39 35.80914 -115.33897 10366 ft 327 kts 192°
2026-05-08 00:40 35.79410 -115.34268 10447 ft 338 kts 192°
2026-05-08 00:40 35.77054 -115.34846 10693 ft 350 kts 193°
2026-05-08 00:40 35.74645 -115.35435 11168 ft 355 kts 192°
2026-05-08 00:40 35.72208 -115.36027 11650 ft 359 kts 192°
2026-05-08 00:41 35.69744 -115.36626 12183 ft 363 kts 191°
2026-05-08 00:41 35.67252 -115.37234 12676 ft 367 kts 191°
2026-05-08 00:41 35.64732 -115.37849 13219 ft 371 kts 191°
2026-05-08 00:41 35.62191 -115.38460 13707 ft 375 kts 188°
2026-05-08 00:42 35.59586 -115.38690 14195 ft 377 kts 177°
2026-05-08 00:42 35.56956 -115.38506 14649 ft 380 kts 175°
2026-05-08 00:42 35.54305 -115.38311 15143 ft 383 kts 176°
2026-05-08 00:42 35.51629 -115.38120 15606 ft 386 kts 176°
2026-05-08 00:43 35.48931 -115.37928 16080 ft 389 kts 176°
2026-05-08 00:43 35.46218 -115.37735 16550 ft 392 kts 176°
2026-05-08 00:43 35.43482 -115.37543 17010 ft 395 kts 176°
2026-05-08 00:43 35.40727 -115.37348 17459 ft 399 kts 176°
2026-05-08 00:44 35.37945 -115.37150 17889 ft 402 kts 176°
2026-05-08 00:44 35.35144 -115.36951 18306 ft 405 kts 176°
2026-05-08 00:44 35.32311 -115.36749 18680 ft 409 kts 175°
2026-05-08 00:44 35.29458 -115.36547 19059 ft 411 kts 176°
2026-05-08 00:45 35.26633 -115.36350 19428 ft 414 kts 175°
2026-05-08 00:45 35.23748 -115.36148 19786 ft 416 kts 175°
2026-05-08 00:45 35.20850 -115.35945 20124 ft 418 kts 175°
2026-05-08 00:45 35.17933 -115.35741 20463 ft 421 kts 175°
2026-05-08 00:46 35.15005 -115.35537 20792 ft 423 kts 175°
2026-05-08 00:46 35.12057 -115.35330 21121 ft 425 kts 175°
2026-05-08 00:46 35.09097 -115.35124 21450 ft 427 kts 175°
2026-05-08 00:46 35.06119 -115.34919 21796 ft 430 kts 175°
2026-05-08 00:47 35.03128 -115.34712 22094 ft 432 kts 175°
2026-05-08 00:47 35.00118 -115.34502 22418 ft 434 kts 175°
2026-05-08 00:47 34.97097 -115.34293 22746 ft 436 kts 175°
2026-05-08 00:47 34.94062 -115.34082 23066 ft 438 kts 175°
2026-05-08 00:48 34.91015 -115.33868 23440 ft 439 kts 175°
2026-05-08 00:48 34.87963 -115.33655 23721 ft 441 kts 175°
2026-05-08 00:48 34.84893 -115.33442 23990 ft 442 kts 175°
2026-05-08 00:48 34.81817 -115.33235 24282 ft 444 kts 177°
2026-05-08 00:49 34.78714 -115.33405 24555 ft 447 kts 187°
2026-05-08 00:49 34.75666 -115.34188 24804 ft 450 kts 197°
2026-05-08 00:49 34.72700 -115.35460 25086 ft 452 kts 200°
2026-05-08 00:49 34.69740 -115.36773 25351 ft 455 kts 199°
2026-05-08 00:50 34.66756 -115.38086 25608 ft 457 kts 199°
2026-05-08 00:50 34.63758 -115.39395 25859 ft 459 kts 199°
2026-05-08 00:50 34.60740 -115.40707 26124 ft 461 kts 199°
2026-05-08 00:50 34.57712 -115.42020 26386 ft 463 kts 199°
2026-05-08 00:51 34.54674 -115.43338 26636 ft 465 kts 199°
2026-05-08 00:51 34.51623 -115.44665 26893 ft 467 kts 199°
2026-05-08 00:51 34.48559 -115.45999 27147 ft 469 kts 199°
2026-05-08 00:51 34.45488 -115.47340 27399 ft 470 kts 199°
2026-05-08 00:52 34.42399 -115.48691 27623 ft 473 kts 199°
2026-05-08 00:52 34.39299 -115.50041 27807 ft 474 kts 199°
2026-05-08 00:52 34.36228 -115.51374 27845 ft 464 kts 199°
2026-05-08 00:52 34.33217 -115.52746 27849 ft 461 kts 204°
2026-05-08 00:53 34.30393 -115.54557 27849 ft 459 kts 212°
2026-05-08 00:53 34.27670 -115.56575 27848 ft 459 kts 211°
2026-05-08 00:53 34.24945 -115.58590 27848 ft 459 kts 211°
2026-05-08 00:53 34.22218 -115.60598 27855 ft 459 kts 210°
2026-05-08 00:54 34.19351 -115.62288 27854 ft 458 kts 201°
2026-05-08 00:54 34.16383 -115.63685 27854 ft 459 kts 200°
2026-05-08 00:54 34.13402 -115.65086 27860 ft 460 kts 201°
2026-05-08 00:54 34.10422 -115.66487 27880 ft 460 kts 201°
2026-05-08 00:55 34.07438 -115.67893 27889 ft 459 kts 201°
2026-05-08 00:55 34.04470 -115.69295 27892 ft 459 kts 201°
2026-05-08 00:55 34.01502 -115.70697 27885 ft 458 kts 201°
2026-05-08 00:55 33.98534 -115.72100 27884 ft 457 kts 201°
2026-05-08 00:56 33.95575 -115.73497 27883 ft 457 kts 201°
2026-05-08 00:56 33.92612 -115.74893 27878 ft 456 kts 201°
2026-05-08 00:56 33.89662 -115.76293 27865 ft 456 kts 201°
2026-05-08 00:56 33.86722 -115.77723 27869 ft 455 kts 202°
2026-05-08 00:57 33.83794 -115.79167 27872 ft 455 kts 202°
2026-05-08 00:57 33.80865 -115.80618 27856 ft 455 kts 202°
2026-05-08 00:57 33.77940 -115.82064 27853 ft 455 kts 202°
2026-05-08 00:57 33.75010 -115.83497 27846 ft 454 kts 201°
2026-05-08 00:58 33.72073 -115.84893 27840 ft 454 kts 201°
2026-05-08 00:58 33.69145 -115.86258 27629 ft 447 kts 200°
2026-05-08 00:58 33.66262 -115.87589 27370 ft 441 kts 200°
2026-05-08 00:58 33.63407 -115.88905 27118 ft 439 kts 200°
2026-05-08 00:59 33.60565 -115.90220 26866 ft 437 kts 201°
2026-05-08 00:59 33.57732 -115.91537 26610 ft 435 kts 201°
2026-05-08 00:59 33.54942 -115.92919 26359 ft 432 kts 207°
2026-05-08 00:59 33.52396 -115.94764 25911 ft 425 kts 218°
2026-05-08 01:00 33.50193 -115.97096 25402 ft 422 kts 229°
2026-05-08 01:00 33.48393 -115.99797 24893 ft 420 kts 238°
2026-05-08 01:00 33.46723 -116.02715 24381 ft 418 kts 237°
2026-05-08 01:00 33.45098 -116.05532 23877 ft 416 kts 237°
2026-05-08 01:01 33.43452 -116.08364 23368 ft 413 kts 237°
2026-05-08 01:01 33.41809 -116.11180 22811 ft 411 kts 237°
2026-05-08 01:01 33.40180 -116.13971 22325 ft 408 kts 237°
2026-05-08 01:01 33.38562 -116.16743 21826 ft 404 kts 236°
2026-05-08 01:02 33.36954 -116.19495 21334 ft 401 kts 237°
2026-05-08 01:02 33.35340 -116.22209 20854 ft 400 kts 232°
2026-05-08 01:02 33.33426 -116.24602 20368 ft 397 kts 220°
2026-05-08 01:02 33.31174 -116.26492 19923 ft 394 kts 208°
2026-05-08 01:03 33.28729 -116.27951 19462 ft 391 kts 205°
2026-05-08 01:03 33.26291 -116.29373 18986 ft 388 kts 205°
2026-05-08 01:03 33.23872 -116.30789 18511 ft 386 kts 205°
2026-05-08 01:03 33.21465 -116.32201 18019 ft 384 kts 205°
2026-05-08 01:04 33.19077 -116.33599 17509 ft 381 kts 205°
2026-05-08 01:04 33.16697 -116.34987 17016 ft 379 kts 205°
2026-05-08 01:04 33.14341 -116.36364 16557 ft 376 kts 205°
2026-05-08 01:04 33.12005 -116.37729 16102 ft 373 kts 205°
2026-05-08 01:05 33.09684 -116.39086 15700 ft 371 kts 205°
2026-05-08 01:05 33.07375 -116.40435 15249 ft 368 kts 205°
2026-05-08 01:05 33.05082 -116.41771 14803 ft 366 kts 205°
2026-05-08 01:05 33.02802 -116.43098 14356 ft 364 kts 205°
2026-05-08 01:06 33.00582 -116.44514 13921 ft 362 kts 213°
2026-05-08 01:06 32.98608 -116.46363 13399 ft 360 kts 221°
2026-05-08 01:06 32.96723 -116.48284 12808 ft 353 kts 221°
2026-05-08 01:06 32.94863 -116.50169 12254 ft 349 kts 221°
2026-05-08 01:07 32.93024 -116.52027 11748 ft 344 kts 220°
2026-05-08 01:07 32.91199 -116.53871 11251 ft 344 kts 221°
2026-05-08 01:07 32.89391 -116.55695 10795 ft 339 kts 221°
2026-05-08 01:07 32.87609 -116.57488 10234 ft 332 kts 221°
2026-05-08 01:08 32.85889 -116.59212 10066 ft 314 kts 221°
2026-05-08 01:08 32.84238 -116.60865 9838 ft 306 kts 221°
2026-05-08 01:08 32.82645 -116.62464 9645 ft 303 kts 221°
2026-05-08 01:08 32.81049 -116.64072 9303 ft 300 kts 222°
2026-05-08 01:09 32.79467 -116.65669 8936 ft 297 kts 222°
2026-05-08 01:09 32.77930 -116.67285 8563 ft 293 kts 229°
2026-05-08 01:09 32.76716 -116.69194 8201 ft 287 kts 243°
2026-05-08 01:09 32.75743 -116.71255 7840 ft 285 kts 243°
2026-05-08 01:10 32.74777 -116.73301 7482 ft 280 kts 244°
2026-05-08 01:10 32.73841 -116.75277 7141 ft 269 kts 244°
2026-05-08 01:10 32.72939 -116.77174 6812 ft 258 kts 244°
2026-05-08 01:10 32.72074 -116.78989 6495 ft 250 kts 244°
2026-05-08 01:11 32.71230 -116.80763 6198 ft 240 kts 244°
2026-05-08 01:11 32.70522 -116.82482 5881 ft 225 kts 255°
2026-05-08 01:11 32.69995 -116.84215 5629 ft 222 kts 254°
2026-05-08 01:11 32.69464 -116.85923 5371 ft 220 kts 254°
2026-05-08 01:12 32.68933 -116.87624 5111 ft 219 kts 253°
2026-05-08 01:12 32.68416 -116.89315 4865 ft 218 kts 254°
2026-05-08 01:12 32.67917 -116.91004 4609 ft 215 kts 254°
2026-05-08 01:12 32.67467 -116.92651 4360 ft 204 kts 261°
2026-05-08 01:13 32.67399 -116.94266 4123 ft 190 kts 278°
2026-05-08 01:13 32.67699 -116.95749 3906 ft 181 kts 288°
2026-05-08 01:13 32.68044 -116.97147 3706 ft 173 kts 288°
2026-05-08 01:13 32.68373 -116.98501 3503 ft 169 kts 287°
2026-05-08 01:14 32.68694 -116.99823 3333 ft 164 kts 287°
2026-05-08 01:14 32.69010 -117.01120 3121 ft 162 kts 287°
2026-05-08 01:14 32.69324 -117.02401 2926 ft 162 kts 287°
2026-05-08 01:14 32.69632 -117.03655 2737 ft 155 kts 286°
2026-05-08 01:15 32.69931 -117.04878 2546 ft 153 kts 286°
2026-05-08 01:15 32.70227 -117.06089 2345 ft 152 kts 286°
2026-05-08 01:15 32.70520 -117.07290 2142 ft 151 kts 286°
2026-05-08 01:15 32.70811 -117.08480 1948 ft 149 kts 285°
2026-05-08 01:16 32.71096 -117.09646 1714 ft 148 kts 285°
2026-05-08 01:16 32.71382 -117.10821 1470 ft 147 kts 285°
2026-05-08 01:16 32.71664 -117.11977 1261 ft 144 kts 285°
2026-05-08 01:16 32.71935 -117.13109 1015 ft 140 kts 284°
2026-05-08 01:17 32.72198 -117.14232 763 ft 142 kts 284°
2026-05-08 01:17 32.72473 -117.15355 575 ft 142 kts 284°
2026-05-08 01:17 32.72748 -117.16476 353 ft 140 kts 284°
2026-05-08 01:17 32.73018 -117.17583 110 ft 139 kts 285°
2026-05-08 01:18 32.73280 -117.18661 27 ft 128 kts 286°
2026-05-08 01:18 32.73476 -117.19458 26 ft 58 kts 286°
2026-05-08 01:18 32.73539 -117.19719 30 ft 22 kts 286°
2026-05-08 01:18 32.73580 -117.19888 28 ft 23 kts 286°
2026-05-08 01:19 32.73629 -117.20088 26 ft 22 kts 286°
2026-05-08 01:19 32.73613 -117.20200 26 ft 12 kts 216°
2026-05-08 01:19 32.73574 -117.20216 25 ft 0 kts 195°
2026-05-08 01:20 32.73571 -117.20217 25 ft 0 kts 195°
2026-05-08 01:20 32.73567 -117.20218 25 ft 1 kts 195°
2026-05-08 01:20 32.73554 -117.20222 25 ft 3 kts 195°
2026-05-08 01:20 32.73515 -117.20208 27 ft 8 kts 158°
2026-05-08 01:21 32.73462 -117.20193 24 ft 8 kts 168°
2026-05-08 01:21 32.73422 -117.20183 23 ft 3 kts 169°
2026-05-08 01:21 32.73411 -117.20181 23 ft 0 kts 169°